sat.trackr.live / text

‹ back to catalog

STARLINK-34046

NORAD 64035 · 2025-102P

PAYLOAD ACTIVE UNKNOWN

§ Identity

Operator
Country
US
Launch date
2025-05-16
Launch site
AFWTR
Launch vehicle
Mass (kg)
RCS (m²)

Purposes: comms

External: N2YO · Heavens-Above · Gunter

§ Orbital elements

Epoch: 2026-09-20T13:42:58.811328Z

Period
94.14 min
Inclination
70.0000°
Eccentricity
0.0003104
Mean motion
15.29589785 rev/d
Perigee alt
474.9 km
Apogee alt
479.2 km
Semi-major
6,855.2 km
B*
2.3755e-4
RAAN
340.5757°
Arg perigee
269.4318°
Mean anomaly
90.6502°
Rev number
7,498

§ Raw data

STARLINK-340461 64035U 25102P   26263.57151402  .00006709  00000+0  23755-3 0  99982 64035  70.0000 340.5757 0003104 269.4318  90.6502 15.29589785 74988

JSON: /api/v1/satellites/64035 · /tle

For live sub-satellite position, see the globe view (requires WebGL).

§ Visibility from observer

Set your observer location to see the next 7 days of passes ≥ 10°. The values pass through the URL so the page stays shareable.

No JS? Fill the form by hand. The geolocation button needs JavaScript.